Time,TemperatureF,DewpointF,PressureIn,WindDirection,WindDirectionDegrees,WindSpeedMPH,WindSpeedGustMPH,Humidity,HourlyPrecipIn,Conditions,Clouds,dailyrainin,SolarRadiationWatts/m^2,SoftwareType,DateUTC
2013-01-05 00:01:00,1.7,-2.3,30.00,West,277,0.0,0.0,83,0.00,-RA,,0.00,0.0,WeatherDisplay:10.37,2013-01-05 06:01:00,
2013-01-05 00:06:00,1.6,-2.4,30.00,West,276,0.0,0.0,83,0.00,-RA,,0.00,0.0,WeatherDisplay:10.37,2013-01-05 06:06:00,
2013-01-05 00:11:00,1.5,-2.5,30.00,West,277,0.0,0.0,83,0.00,-RA,,0.00,0.0,WeatherDisplay:10.37,2013-01-05 06:11:00,
2013-01-05 00:16:00,1.5,-2.5,30.00,West,276,0.0,0.0,83,0.00,-RA,,0.00,0.0,WeatherDisplay:10.37,2013-01-05 06:16:00,
2013-01-05 00:21:00,1.4,-2.6,30.00,West,277,0.0,0.0,83,0.00,-RA,,0.00,0.0,WeatherDisplay:10.37,2013-01-05 06:21:00,
2013-01-05 00:26:00,1.3,-2.7,30.00,West,276,0.0,0.0,83,0.00,-RA,,0.00,0.0,WeatherDisplay:10.37,2013-01-05 06:26:00,
2013-01-05 00:31:00,1.3,-2.7,29.99,West,277,0.0,0.0,83,0.00,-RA,,0.00,0.0,WeatherDisplay:10.37,2013-01-05 06:31:00,
2013-01-05 00:36:00,1.2,-2.8,29.99,West,276,0.0,0.0,83,0.00,-RA,,0.00,0.0,WeatherDisplay:10.37,2013-01-05 06:36:00,
2013-01-05 00:41:00,1.1,-2.9,29.99,West,277,0.0,0.0,83,0.00,-RA,,0.00,0.0,WeatherDisplay:10.37,2013-01-05 06:41:00,
2013-01-05 00:46:00,1.0,-3.0,29.99,West,276,0.0,0.0,83,0.00,-RA,,0.00,0.0,WeatherDisplay:10.37,2013-01-05 06:46:00,
2013-01-05 00:51:00,1.0,-3.0,29.98,West,277,0.0,0.0,83,0.00,-RA,,0.00,0.0,WeatherDisplay:10.37,2013-01-05 06:51:00,
2013-01-05 00:56:00,0.9,-3.1,29.99,West,276,0.0,0.0,83,0.00,-RA,,0.00,0.0,WeatherDisplay:10.37,2013-01-05 06:56:00,
2013-01-05 01:01:00,0.9,-3.1,29.99,West,277,0.0,0.0,83,0.00,-RA,,0.00,0.0,WeatherDisplay:10.37,2013-01-05 07:01:00,
2013-01-05 01:06:00,0.8,-3.2,29.98,West,277,0.0,0.0,83,0.00,-RA,,0.00,0.0,WeatherDisplay:10.37,2013-01-05 07:06:00,
2013-01-05 01:11:00,0.8,-3.2,29.98,West,277,0.0,0.0,83,0.00,-RA,,0.00,0.0,WeatherDisplay:10.37,2013-01-05 07:11:00,
2013-01-05 01:16:00,0.7,-3.3,29.98,West,277,0.0,0.0,83,0.00,-RA,,0.00,0.0,WeatherDisplay:10.37,2013-01-05 07:16:00,
2013-01-05 01:21:00,0.6,-3.3,29.98,West,277,0.0,0.0,83,0.00,-RA,,0.00,0.0,WeatherDisplay:10.37,2013-01-05 07:21:00,
2013-01-05 01:26:00,0.5,-3.4,29.99,West,277,0.0,0.0,83,0.00,-RA,,0.00,0.0,WeatherDisplay:10.37,2013-01-05 07:26:00,
2013-01-05 01:31:00,0.4,-3.5,29.98,West,277,0.0,0.0,83,0.00,-RA,,0.00,0.0,WeatherDisplay:10.37,2013-01-05 07:31:00,
2013-01-05 01:36:00,0.4,-3.5,29.99,West,276,0.0,0.0,83,0.00,-RA,,0.00,0.0,WeatherDisplay:10.37,2013-01-05 07:36:00,
2013-01-05 01:41:00,0.3,-3.6,29.98,West,276,0.0,0.0,83,0.00,-RA,,0.00,0.0,WeatherDisplay:10.37,2013-01-05 07:41:00,
2013-01-05 01:46:00,0.2,-3.7,29.98,West,277,0.0,0.0,83,0.00,-RA,,0.00,0.0,WeatherDisplay:10.37,2013-01-05 07:46:00,
2013-01-05 01:51:00,0.1,-3.8,29.98,West,277,0.0,0.0,83,0.00,-RA,,0.00,0.0,WeatherDisplay:10.37,2013-01-05 07:51:00,
2013-01-05 01:56:00,0.1,-3.8,29.98,West,276,0.0,0.0,83,0.00,-RA,,0.00,0.0,WeatherDisplay:10.37,2013-01-05 07:56:00,
2013-01-05 02:01:00,0.0,-3.9,29.98,West,277,0.0,0.0,83,0.00,-RA,,0.00,0.0,WeatherDisplay:10.37,2013-01-05 08:01:00,
2013-01-05 02:06:00,-0.1,-4.0,29.98,West,276,0.0,0.0,83,0.00,-RA,,0.00,0.0,WeatherDisplay:10.37,2013-01-05 08:06:00,
2013-01-05 02:11:00,-0.1,-4.0,29.98,West,276,0.0,0.0,83,0.00,-RA,,0.00,0.0,WeatherDisplay:10.37,2013-01-05 08:11:00,
2013-01-05 02:16:00,-0.2,-4.1,29.98,West,277,0.0,0.0,83,0.00,-RA,,0.00,0.0,WeatherDisplay:10.37,2013-01-05 08:16:00,
2013-01-05 02:21:00,-0.3,-4.2,29.98,West,277,0.0,0.0,83,0.00,-RA,,0.00,0.0,WeatherDisplay:10.37,2013-01-05 08:21:00,
2013-01-05 02:26:00,-0.3,-4.2,29.98,West,276,0.0,0.0,83,0.00,-RA,,0.00,0.0,WeatherDisplay:10.37,2013-01-05 08:26:00,
2013-01-05 02:31:00,-0.4,-4.3,29.97,West,277,0.0,0.0,83,0.00,-RA,,0.00,0.0,WeatherDisplay:10.37,2013-01-05 08:31:00,
2013-01-05 02:36:00,-0.5,-4.4,29.97,West,277,0.0,0.0,83,0.00,-RA,,0.00,0.0,WeatherDisplay:10.37,2013-01-05 08:36:00,
2013-01-05 02:41:00,-0.5,-4.4,29.97,West,276,0.0,0.0,83,0.00,-RA,,0.00,0.0,WeatherDisplay:10.37,2013-01-05 08:41:00,
2013-01-05 02:46:00,-0.6,-4.5,29.97,West,277,0.0,0.0,83,0.00,-RA,,0.00,0.0,WeatherDisplay:10.37,2013-01-05 08:46:00,
2013-01-05 02:51:00,-0.6,-4.5,29.97,West,277,0.0,0.0,83,0.00,-RA,,0.00,0.0,WeatherDisplay:10.37,2013-01-05 08:51:00,
2013-01-05 02:56:00,-0.7,-4.6,29.97,West,277,0.0,0.0,83,0.00,-RA,,0.00,0.0,WeatherDisplay:10.37,2013-01-05 08:56:00,
2013-01-05 03:01:00,-0.7,-4.6,29.97,West,277,0.0,0.0,83,0.00,-RA,,0.00,0.0,WeatherDisplay:10.37,2013-01-05 09:01:00,
2013-01-05 03:06:00,-0.8,-4.7,29.97,West,277,0.0,0.0,83,0.00,-RA,,0.00,0.0,WeatherDisplay:10.37,2013-01-05 09:06:00,
2013-01-05 03:11:00,-0.9,-4.8,29.97,West,276,0.0,0.0,83,0.00,-RA,,0.00,0.0,WeatherDisplay:10.37,2013-01-05 09:11:00,
2013-01-05 03:16:00,-0.9,-4.8,29.97,West,276,0.0,0.0,83,0.00,-RA,,0.00,0.0,WeatherDisplay:10.37,2013-01-05 09:16:00,
2013-01-05 03:22:00,-1.0,-4.9,29.97,West,277,0.0,0.0,83,0.00,-RA,,0.00,0.0,WeatherDisplay:10.37,2013-01-05 09:22:00,
2013-01-05 03:27:00,-1.0,-4.9,29.96,West,276,0.0,0.0,83,0.00,-RA,,0.00,0.0,WeatherDisplay:10.37,2013-01-05 09:27:00,
2013-01-05 03:32:00,-1.1,-5.0,29.96,West,277,0.0,0.0,83,0.00,-RA,,0.00,0.0,WeatherDisplay:10.37,2013-01-05 09:32:00,
2013-01-05 03:37:00,-1.2,-5.1,29.96,West,277,0.0,0.0,83,0.00,-RA,,0.00,0.0,WeatherDisplay:10.37,2013-01-05 09:37:00,
2013-01-05 03:42:00,-1.2,-5.1,29.96,West,277,0.0,0.0,83,0.00,-RA,,0.00,0.0,WeatherDisplay:10.37,2013-01-05 09:42:00,
2013-01-05 03:47:00,-1.3,-5.2,29.96,West,276,0.0,0.0,83,0.00,-RA,,0.00,0.0,WeatherDisplay:10.37,2013-01-05 09:47:00,
2013-01-05 03:52:00,-1.3,-5.2,29.95,West,277,0.0,0.0,83,0.00,-RA,,0.00,0.0,WeatherDisplay:10.37,2013-01-05 09:52:00,
2013-01-05 03:57:00,-1.4,-5.3,29.95,West,277,0.0,0.0,83,0.00,-RA,,0.00,0.0,WeatherDisplay:10.37,2013-01-05 09:57:00,
2013-01-05 04:02:00,-1.4,-5.3,29.95,West,276,0.0,0.0,83,0.00,-RA,,0.00,0.0,WeatherDisplay:10.37,2013-01-05 10:02:00,
2013-01-05 04:07:00,-1.4,-5.3,29.94,West,277,0.0,0.0,83,0.00,-RA,,0.00,0.0,WeatherDisplay:10.37,2013-01-05 10:07:00,
2013-01-05 04:12:00,-1.4,-5.3,29.94,West,276,0.0,0.0,83,0.00,-RA,,0.00,0.0,WeatherDisplay:10.37,2013-01-05 10:12:00,
2013-01-05 04:17:00,-1.4,-5.3,29.94,West,277,0.0,0.0,83,0.00,-RA,,0.00,0.0,WeatherDisplay:10.37,2013-01-05 10:17:00,
2013-01-05 04:22:00,-1.4,-5.3,29.94,West,276,0.0,0.0,83,0.00,-RA,,0.00,0.0,WeatherDisplay:10.37,2013-01-05 10:22:00,
2013-01-05 04:27:00,-1.4,-5.1,29.93,West,277,0.0,0.0,84,0.00,-RA,,0.00,0.0,WeatherDisplay:10.37,2013-01-05 10:27:00,
2013-01-05 04:32:00,-1.4,-5.1,29.93,West,277,0.0,0.0,84,0.00,-RA,,0.00,0.0,WeatherDisplay:10.37,2013-01-05 10:32:00,
2013-01-05 04:37:00,-1.4,-5.1,29.93,West,277,0.0,0.0,84,0.00,-RA,,0.00,0.0,WeatherDisplay:10.37,2013-01-05 10:37:00,
2013-01-05 04:42:00,-1.4,-5.1,29.92,West,276,0.0,0.0,84,0.00,-RA,,0.00,0.0,WeatherDisplay:10.37,2013-01-05 10:42:00,
2013-01-05 04:47:00,-1.4,-5.1,29.92,West,277,0.0,0.0,84,0.00,-RA,,0.00,0.0,WeatherDisplay:10.37,2013-01-05 10:47:00,
2013-01-05 04:52:00,-1.3,-5.0,29.92,West,277,0.0,0.0,84,0.00,-RA,,0.00,0.0,WeatherDisplay:10.37,2013-01-05 10:52:00,
2013-01-05 04:57:00,-1.3,-5.0,29.91,West,277,0.0,0.0,84,0.00,-RA,,0.00,0.0,WeatherDisplay:10.37,2013-01-05 10:57:00,
2013-01-05 05:02:00,-1.3,-5.0,29.91,West,277,0.0,0.0,84,0.00,-RA,,0.00,0.0,WeatherDisplay:10.37,2013-01-05 11:02:00,
2013-01-05 05:07:00,-1.2,-4.9,29.91,West,277,0.0,0.0,84,0.00,-RA,,0.00,0.0,WeatherDisplay:10.37,2013-01-05 11:07:00,
2013-01-05 05:12:00,-1.0,-4.4,29.91,West,276,0.0,0.0,85,0.00,-RA,,0.00,0.0,WeatherDisplay:10.37,2013-01-05 11:12:00,
2013-01-05 05:17:00,-0.9,-4.3,29.91,West,277,0.0,0.0,85,0.00,-RA,,0.00,0.0,WeatherDisplay:10.37,2013-01-05 11:17:00,
2013-01-05 05:22:00,-0.7,-4.1,29.91,West,277,0.0,0.0,85,0.00,-RA,,0.00,0.0,WeatherDisplay:10.37,2013-01-05 11:22:00,
2013-01-05 05:27:00,-0.6,-4.0,29.90,West,277,0.0,0.0,85,0.00,-RA,,0.00,0.0,WeatherDisplay:10.37,2013-01-05 11:27:00,
2013-01-05 05:32:00,-0.4,-3.8,29.91,West,277,0.0,0.0,85,0.00,-RA,,0.00,0.0,WeatherDisplay:10.37,2013-01-05 11:32:00,
2013-01-05 05:37:00,-0.3,-3.7,29.91,West,276,0.0,0.0,85,0.00,-RA,,0.00,0.0,WeatherDisplay:10.37,2013-01-05 11:37:00,
2013-01-05 05:42:00,-0.2,-3.6,29.91,West,277,0.0,0.0,85,0.00,-RA,,0.00,0.0,WeatherDisplay:10.37,2013-01-05 11:42:00,
2013-01-05 05:47:00,-0.1,-3.5,29.91,West,277,0.0,0.0,85,0.00,-RA,,0.00,0.0,WeatherDisplay:10.37,2013-01-05 11:47:00,
2013-01-05 05:52:00,0.0,-3.2,29.91,West,276,0.0,0.0,86,0.00,-RA,,0.00,0.0,WeatherDisplay:10.37,2013-01-05 11:52:00,
2013-01-05 05:57:00,0.2,-3.0,29.91,West,277,0.0,0.0,86,0.00,-RA,,0.00,0.0,WeatherDisplay:10.37,2013-01-05 11:57:00,
2013-01-05 06:02:00,0.6,-2.4,29.91,West,276,0.0,0.0,87,0.00,-RA,,0.00,0.0,WeatherDisplay:10.37,2013-01-05 12:02:00,
2013-01-05 06:07:00,1.1,-1.9,29.90,West,276,0.0,0.0,87,0.00,-RA,,0.00,0.0,WeatherDisplay:10.37,2013-01-05 12:07:00,
2013-01-05 06:12:00,1.5,-1.5,29.91,West,277,0.0,0.0,87,0.00,-RA,,0.00,0.0,WeatherDisplay:10.37,2013-01-05 12:12:00,
2013-01-05 06:17:00,1.7,-1.3,29.91,West,277,0.0,0.0,87,0.00,-RA,,0.00,0.0,WeatherDisplay:10.37,2013-01-05 12:17:00,
2013-01-05 06:22:00,1.8,-1.2,29.91,West,276,0.0,0.0,87,0.00,-RA,,0.00,0.0,WeatherDisplay:10.37,2013-01-05 12:22:00,
2013-01-05 06:27:00,1.9,-1.1,29.91,West,277,0.0,0.0,87,0.00,-RA,,0.00,0.0,WeatherDisplay:10.37,2013-01-05 12:27:00,
2013-01-05 06:32:00,1.9,-1.3,29.90,West,277,0.0,0.0,86,0.00,-RA,,0.00,0.0,WeatherDisplay:10.37,2013-01-05 12:32:00,
2013-01-05 06:37:00,1.8,-1.4,29.90,West,277,0.0,0.0,86,0.00,-RA,,0.00,0.0,WeatherDisplay:10.37,2013-01-05 12:37:00,
2013-01-05 06:42:00,1.8,-1.4,29.90,West,276,0.0,0.0,86,0.00,-RA,,0.00,0.0,WeatherDisplay:10.37,2013-01-05 12:42:00,
2013-01-05 06:47:00,1.7,-1.5,29.89,West,276,0.0,0.0,86,0.00,-RA,,0.00,0.0,WeatherDisplay:10.37,2013-01-05 12:47:00,
2013-01-05 06:52:00,1.5,-1.7,29.89,West,276,0.0,0.0,86,0.00,-RA,,0.00,0.0,WeatherDisplay:10.37,2013-01-05 12:52:00,
2013-01-05 06:57:00,1.4,-1.8,29.88,West,277,0.0,0.0,86,0.00,-RA,,0.00,0.0,WeatherDisplay:10.37,2013-01-05 12:57:00,
2013-01-05 07:02:00,1.3,-1.9,29.88,West,277,0.0,0.0,86,0.00,-RA,,0.00,0.0,WeatherDisplay:10.37,2013-01-05 13:02:00,
2013-01-05 07:07:00,1.1,-2.1,29.88,West,277,0.0,0.0,86,0.00,-RA,,0.00,0.0,WeatherDisplay:10.37,2013-01-05 13:07:00,
2013-01-05 07:12:00,1.0,-2.2,29.88,West,277,0.0,0.0,86,0.00,-RA,,0.00,0.0,WeatherDisplay:10.37,2013-01-05 13:12:00,
2013-01-05 07:17:00,0.9,-2.6,29.88,West,276,0.0,0.0,85,0.00,-RA,,0.00,0.0,WeatherDisplay:10.37,2013-01-05 13:17:00,
2013-01-05 07:22:00,0.8,-2.7,29.88,West,277,0.0,0.0,85,0.00,-RA,,0.00,0.0,WeatherDisplay:10.37,2013-01-05 13:22:00,
2013-01-05 07:27:00,0.7,-2.7,29.88,West,276,0.0,0.0,85,0.00,-RA,,0.00,0.0,WeatherDisplay:10.37,2013-01-05 13:27:00,
2013-01-05 07:32:00,0.7,-2.5,29.88,West,277,0.0,0.0,86,0.00,-RA,,0.00,0.0,WeatherDisplay:10.37,2013-01-05 13:32:00,
2013-01-05 07:37:00,0.7,-2.5,29.88,West,277,0.0,0.0,86,0.00,-RA,,0.00,0.0,WeatherDisplay:10.37,2013-01-05 13:37:00,
2013-01-05 07:42:00,0.8,-2.4,29.88,West,277,0.0,0.0,86,0.00,-RA,,0.00,0.0,WeatherDisplay:10.37,2013-01-05 13:42:00,
2013-01-05 07:47:00,0.8,-2.4,29.88,West,276,0.0,0.0,86,0.00,-RA,,0.00,0.0,WeatherDisplay:10.37,2013-01-05 13:47:00,
2013-01-05 07:52:00,0.9,-2.3,29.88,West,277,0.0,0.0,86,0.00,-RA,,0.00,0.0,WeatherDisplay:10.37,2013-01-05 13:52:00,
2013-01-05 07:57:00,0.9,-2.3,29.88,West,276,0.0,0.0,86,0.00,-RA,,0.00,0.0,WeatherDisplay:10.37,2013-01-05 13:57:00,
2013-01-05 08:02:00,1.0,-2.2,29.88,West,276,0.0,0.0,86,0.00,-RA,,0.00,0.0,WeatherDisplay:10.37,2013-01-05 14:02:00,
2013-01-05 08:07:00,1.0,-2.2,29.89,West,277,0.0,0.0,86,0.00,-RA,,0.00,5.0,WeatherDisplay:10.37,2013-01-05 14:07:00,
2013-01-05 08:12:00,1.0,-2.2,29.89,West,277,0.0,0.0,86,0.00,-RA,,0.00,7.0,WeatherDisplay:10.37,2013-01-05 14:12:00,
2013-01-05 08:17:00,1.0,-2.2,29.89,West,276,0.0,0.0,86,0.00,-RA,,0.00,7.0,WeatherDisplay:10.37,2013-01-05 14:17:00,
2013-01-05 08:22:00,0.9,-2.3,29.89,West,277,0.0,0.0,86,0.00,-RA,,0.00,9.0,WeatherDisplay:10.37,2013-01-05 14:22:00,
2013-01-05 08:27:00,0.9,-2.6,29.89,West,276,0.0,0.0,85,0.00,-RA,,0.00,11.0,WeatherDisplay:10.37,2013-01-05 14:27:00,
2013-01-05 08:32:00,0.9,-2.3,29.89,West,276,0.0,0.0,86,0.00,-RA,,0.00,12.0,WeatherDisplay:10.37,2013-01-05 14:32:00,
2013-01-05 08:37:00,0.9,-2.3,29.89,West,276,0.0,0.0,86,0.00,-RA,,0.00,14.0,WeatherDisplay:10.37,2013-01-05 14:37:00,
2013-01-05 08:42:00,1.0,-2.2,29.89,West,277,0.0,0.0,86,0.00,-RA,,0.00,16.0,WeatherDisplay:10.37,2013-01-05 14:42:00,
2013-01-05 08:47:00,1.1,-2.1,29.89,West,276,0.0,0.0,86,0.00,-RA,,0.00,18.0,WeatherDisplay:10.37,2013-01-05 14:47:00,
2013-01-05 08:52:00,1.2,-2.0,29.89,West,277,0.0,0.0,86,0.00,-RA,,0.00,19.0,WeatherDisplay:10.37,2013-01-05 14:52:00,
2013-01-05 08:58:00,1.3,-1.9,29.90,West,277,0.0,0.0,86,0.00,-RA,,0.00,21.0,WeatherDisplay:10.37,2013-01-05 14:58:00,
2013-01-05 09:03:00,1.4,-1.8,29.90,West,276,0.0,0.0,86,0.00,-RA,,0.00,28.0,WeatherDisplay:10.37,2013-01-05 15:03:00,
2013-01-05 09:08:00,1.6,-1.6,29.90,West,276,0.0,0.0,86,0.00,-RA,,0.00,30.0,WeatherDisplay:10.37,2013-01-05 15:08:00,
2013-01-05 09:13:00,1.8,-1.4,29.90,West,276,0.0,0.0,86,0.00,-RA,,0.00,35.0,WeatherDisplay:10.37,2013-01-05 15:13:00,
2013-01-05 09:18:00,2.0,-1.0,29.90,West,277,0.0,0.0,87,0.00,-RA,,0.00,39.0,WeatherDisplay:10.37,2013-01-05 15:18:00,
2013-01-05 09:23:00,2.3,-0.7,29.90,West,277,0.0,0.0,87,0.00,-RA,,0.00,49.0,WeatherDisplay:10.37,2013-01-05 15:23:00,
2013-01-05 09:28:00,2.6,-0.4,29.90,West,277,0.0,0.0,87,0.00,-RA,,0.00,53.0,WeatherDisplay:10.37,2013-01-05 15:28:00,
2013-01-05 09:33:00,2.9,-0.1,29.90,West,276,0.0,0.0,87,0.00,-RA,,0.00,51.0,WeatherDisplay:10.37,2013-01-05 15:33:00,
2013-01-05 09:38:00,3.4,0.4,29.90,West,277,0.0,0.0,87,0.00,-RA,,0.00,74.0,WeatherDisplay:10.37,2013-01-05 15:38:00,
2013-01-05 09:43:00,3.8,1.0,29.90,West,277,0.0,0.0,88,0.00,-RA,,0.00,86.0,WeatherDisplay:10.37,2013-01-05 15:43:00,
2013-01-05 09:48:00,4.4,1.6,29.90,West,276,0.0,0.0,88,0.00,-RA,,0.00,104.0,WeatherDisplay:10.37,2013-01-05 15:48:00,
2013-01-05 09:53:00,7.8,5.5,29.91,West,276,0.0,0.0,90,0.00,-RA,,0.00,74.0,WeatherDisplay:10.37,2013-01-05 15:53:00,
2013-01-05 09:58:00,8.9,6.3,29.91,West,276,0.0,0.0,89,0.00,-RA,,0.00,79.0,WeatherDisplay:10.37,2013-01-05 15:58:00,
2013-01-05 10:03:00,9.8,7.2,29.91,West,276,0.0,0.0,89,0.00,-RA,,0.00,183.0,WeatherDisplay:10.37,2013-01-05 16:03:00,
2013-01-05 10:08:00,11.5,9.1,29.91,West,277,0.0,0.0,90,0.00,-RA,,0.00,192.0,WeatherDisplay:10.37,2013-01-05 16:08:00,
2013-01-05 10:13:00,12.6,10.2,29.91,West,277,0.0,0.0,90,0.00,-RA,,0.00,202.0,WeatherDisplay:10.37,2013-01-05 16:13:00,
2013-01-05 10:18:00,13.7,11.3,29.91,West,276,0.0,0.0,90,0.00,-RA,,0.00,214.0,WeatherDisplay:10.37,2013-01-05 16:18:00,
2013-01-05 10:23:00,14.5,12.1,29.91,West,277,0.0,0.0,90,0.00,-RA,,0.00,225.0,WeatherDisplay:10.37,2013-01-05 16:23:00,
2013-01-05 10:28:00,15.1,12.7,29.91,West,276,0.0,0.0,90,0.00,-RA,,0.00,237.0,WeatherDisplay:10.37,2013-01-05 16:28:00,
2013-01-05 10:33:00,15.7,13.3,29.91,West,276,0.0,0.0,90,0.00,-RA,,0.00,258.0,WeatherDisplay:10.37,2013-01-05 16:33:00,
2013-01-05 10:38:00,16.0,13.6,29.91,West,276,0.0,0.0,90,0.00,-RA,,0.00,283.0,WeatherDisplay:10.37,2013-01-05 16:38:00,
2013-01-05 10:43:00,16.5,14.1,29.91,West,277,0.0,0.0,90,0.00,-RA,,0.00,322.0,WeatherDisplay:10.37,2013-01-05 16:43:00,
2013-01-05 10:48:00,17.0,14.6,29.91,West,276,0.0,0.0,90,0.00,-RA,,0.00,374.0,WeatherDisplay:10.37,2013-01-05 16:48:00,
2013-01-05 10:53:00,17.6,15.2,29.91,West,277,0.0,0.0,90,0.00,-RA,,0.00,336.0,WeatherDisplay:10.37,2013-01-05 16:53:00,
2013-01-05 10:58:00,18.6,16.4,29.91,West,277,0.0,0.0,91,0.00,-RA,,0.00,457.0,WeatherDisplay:10.37,2013-01-05 16:58:00,
2013-01-05 11:03:00,19.0,16.3,29.91,West,276,0.0,0.0,89,0.00,-RA,,0.00,306.0,WeatherDisplay:10.37,2013-01-05 17:03:00,
2013-01-05 11:08:00,19.1,16.1,29.90,West,277,0.0,0.0,88,0.00,-RA,,0.00,246.0,WeatherDisplay:10.37,2013-01-05 17:08:00,
2013-01-05 11:13:00,19.1,15.9,29.90,West,277,0.0,0.0,87,0.00,-RA,,0.00,230.0,WeatherDisplay:10.37,2013-01-05 17:13:00,
2013-01-05 11:18:00,18.9,15.9,29.90,West,277,0.0,0.0,88,0.00,-RA,,0.00,218.0,WeatherDisplay:10.37,2013-01-05 17:18:00,
2013-01-05 11:23:00,19.1,15.9,29.90,West,276,0.0,0.0,87,0.00,-RA,,0.00,214.0,WeatherDisplay:10.37,2013-01-05 17:23:00,
2013-01-05 11:28:00,19.4,18.4,29.90,West,277,0.0,0.0,96,0.00,-RA,,0.00,193.0,WeatherDisplay:10.37,2013-01-05 17:28:00,
2013-01-05 11:33:00,19.4,16.2,29.89,West,277,0.0,0.0,87,0.00,-RA,,0.00,178.0,WeatherDisplay:10.37,2013-01-05 17:33:00,
2013-01-05 11:38:00,19.4,16.2,29.90,West,277,0.0,0.0,87,0.00,-RA,,0.00,271.0,WeatherDisplay:10.37,2013-01-05 17:38:00,
2013-01-05 11:43:00,19.8,16.6,29.89,West,276,0.0,0.0,87,0.00,-RA,,0.00,186.0,WeatherDisplay:10.37,2013-01-05 17:43:00,
2013-01-05 11:48:00,21.2,17.9,29.89,West,277,0.0,0.0,87,0.00,-RA,,0.00,371.0,WeatherDisplay:10.37,2013-01-05 17:48:00,
2013-01-05 11:53:00,21.6,17.8,29.89,West,277,2.3,2.3,85,0.00,-RA,,0.00,366.0,WeatherDisplay:10.37,2013-01-05 17:53:00,
2013-01-05 11:58:00,22.1,18.3,29.89,West,279,1.1,1.1,85,0.00,-RA,,0.00,415.0,WeatherDisplay:10.37,2013-01-05 17:58:00,
2013-01-05 12:03:00,22.7,18.9,29.89,West,279,3.5,3.5,85,0.00,-RA,,0.00,308.0,WeatherDisplay:10.37,2013-01-05 18:03:00,
2013-01-05 12:08:00,22.8,18.4,29.88,West,279,1.1,1.1,83,0.00,-RA,,0.00,360.0,WeatherDisplay:10.37,2013-01-05 18:08:00,
2013-01-05 12:13:00,23.1,18.7,29.88,West,279,0.0,0.0,83,0.00,-RA,,0.00,360.0,WeatherDisplay:10.37,2013-01-05 18:13:00,
2013-01-05 12:18:00,23.1,18.4,29.87,West,279,0.0,0.1,82,0.00,-RA,,0.00,362.0,WeatherDisplay:10.37,2013-01-05 18:18:00,
2013-01-05 12:23:00,23.4,19.0,29.87,West,279,0.0,0.0,83,0.00,-RA,,0.00,357.0,WeatherDisplay:10.37,2013-01-05 18:23:00,
2013-01-05 12:28:00,24.0,19.0,29.87,West,279,0.0,0.0,81,0.00,-RA,,0.00,362.0,WeatherDisplay:10.37,2013-01-05 18:28:00,
2013-01-05 12:33:00,24.3,19.3,29.86,West,279,0.0,0.0,81,0.00,-RA,,0.00,404.0,WeatherDisplay:10.37,2013-01-05 18:33:00,
2013-01-05 12:38:00,24.9,19.6,29.87,West,279,0.0,0.0,80,0.00,-RA,,0.00,359.0,WeatherDisplay:10.37,2013-01-05 18:38:00,
2013-01-05 12:43:00,24.9,19.6,29.86,West,279,0.0,0.0,80,0.00,-RA,,0.00,216.0,WeatherDisplay:10.37,2013-01-05 18:43:00,
2013-01-05 12:48:00,25.3,20.3,29.86,West,280,0.0,0.4,81,0.00,-RA,,0.00,315.0,WeatherDisplay:10.37,2013-01-05 18:48:00,
2013-01-05 12:53:00,25.1,19.8,29.86,West,280,0.0,0.1,80,0.00,-RA,,0.00,206.0,WeatherDisplay:10.37,2013-01-05 18:53:00,
2013-01-05 12:58:00,24.7,19.4,29.86,West,280,0.0,0.0,80,0.00,-RA,,0.00,153.0,WeatherDisplay:10.37,2013-01-05 18:58:00,
2013-01-05 13:03:00,24.6,19.3,29.86,West,280,1.1,0.0,80,0.00,-RA,,0.00,155.0,WeatherDisplay:10.37,2013-01-05 19:03:00,
2013-01-05 13:08:00,24.9,19.6,29.86,West,280,0.0,0.0,80,0.00,-RA,,0.00,230.0,WeatherDisplay:10.37,2013-01-05 19:08:00,
2013-01-05 13:13:00,25.0,19.4,29.86,West,281,0.0,0.3,79,0.00,-RA,,0.00,178.0,WeatherDisplay:10.37,2013-01-05 19:13:00,
2013-01-05 13:18:00,25.1,19.2,29.86,West,281,0.0,0.0,78,0.00,-RA,,0.00,299.0,WeatherDisplay:10.37,2013-01-05 19:18:00,
2013-01-05 13:23:00,25.3,19.4,29.86,WNW,282,0.0,0.2,78,0.00,-RA,,0.00,225.0,WeatherDisplay:10.37,2013-01-05 19:23:00,
2013-01-05 13:29:00,25.1,19.2,29.86,WNW,295,0.0,0.0,78,0.00,-RA,,0.00,322.0,WeatherDisplay:10.37,2013-01-05 19:29:00,
2013-01-05 13:34:00,25.4,19.2,29.86,WNW,296,0.0,0.2,77,0.00,-RA,,0.00,336.0,WeatherDisplay:10.37,2013-01-05 19:34:00,
2013-01-05 13:39:00,25.6,19.4,29.86,WNW,300,2.3,0.0,77,0.00,-RA,,0.00,352.0,WeatherDisplay:10.37,2013-01-05 19:39:00,
2013-01-05 13:44:00,25.9,19.4,29.86,North,355,0.0,0.2,76,0.00,-RA,,0.00,360.0,WeatherDisplay:10.37,2013-01-05 19:44:00,
2013-01-05 13:49:00,25.7,19.5,29.86,North,355,3.5,3.5,77,0.00,-RA,,0.00,190.0,WeatherDisplay:10.37,2013-01-05 19:49:00,
2013-01-05 13:54:00,25.7,19.5,29.86,North,355,0.0,0.0,77,0.00,-RA,,0.00,339.0,WeatherDisplay:10.37,2013-01-05 19:54:00,
2013-01-05 13:59:00,25.9,19.4,29.85,North,355,2.3,0.0,76,0.00,-RA,,0.00,287.0,WeatherDisplay:10.37,2013-01-05 19:59:00,
2013-01-05 14:04:00,26.4,19.5,29.85,North,355,0.0,0.0,75,0.00,-RA,,0.00,294.0,WeatherDisplay:10.37,2013-01-05 20:04:00,
2013-01-05 14:09:00,26.2,19.0,29.86,North,355,2.3,2.3,74,0.00,-RA,,0.00,142.0,WeatherDisplay:10.37,2013-01-05 20:09:00,
2013-01-05 14:14:00,25.5,18.7,29.86,WNW,303,3.5,3.5,75,0.00,-RA,,0.00,114.0,WeatherDisplay:10.37,2013-01-05 20:14:00,
2013-01-05 14:19:00,25.0,18.5,29.87,NW,309,2.3,2.3,76,0.00,-RA,,0.00,306.0,WeatherDisplay:10.37,2013-01-05 20:19:00,
2013-01-05 14:24:00,25.4,18.6,29.87,NW,311,3.5,3.5,75,0.00,-RA,,0.00,246.0,WeatherDisplay:10.37,2013-01-05 20:24:00,
2013-01-05 14:29:00,25.2,18.4,29.87,NW,323,2.3,2.3,75,0.00,-RA,,0.00,271.0,WeatherDisplay:10.37,2013-01-05 20:29:00,
2013-01-05 14:34:00,25.1,18.6,29.86,NW,311,2.0,0.0,76,0.00,-RA,,0.00,230.0,WeatherDisplay:10.37,2013-01-05 20:34:00,
2013-01-05 14:39:00,25.1,18.6,29.87,NW,325,3.5,3.5,76,0.00,-RA,,0.00,213.0,WeatherDisplay:10.37,2013-01-05 20:39:00,
2013-01-05 14:44:00,24.5,18.3,29.87,NW,323,3.5,3.5,77,0.00,-RA,,0.00,197.0,WeatherDisplay:10.37,2013-01-05 20:44:00,
2013-01-05 14:49:00,24.2,18.3,29.87,NW,311,4.6,4.6,78,0.00,-RA,,0.00,188.0,WeatherDisplay:10.37,2013-01-05 20:49:00,
2013-01-05 14:54:00,24.0,18.1,29.87,NNW,337,3.5,3.5,78,0.00,-RA,,0.00,200.0,WeatherDisplay:10.37,2013-01-05 20:54:00,
2013-01-05 14:59:00,23.6,17.7,29.88,NNE,13,4.6,4.6,78,0.00,-RA,,0.00,135.0,WeatherDisplay:10.37,2013-01-05 20:59:00,
2013-01-05 15:04:00,23.5,17.9,29.87,North,5,0.0,0.0,79,0.00,-RA,,0.00,142.0,WeatherDisplay:10.37,2013-01-05 21:04:00,
2013-01-05 15:09:00,23.8,17.9,29.88,North,5,3.5,3.5,78,0.00,-RA,,0.00,135.0,WeatherDisplay:10.37,2013-01-05 21:09:00,
2013-01-05 15:14:00,23.6,18.0,29.88,North,360,1.1,0.0,79,0.00,-RA,,0.00,95.0,WeatherDisplay:10.37,2013-01-05 21:14:00,
2013-01-05 15:19:00,23.6,18.0,29.88,North,360,0.0,0.0,79,0.00,-RA,,0.00,121.0,WeatherDisplay:10.37,2013-01-05 21:19:00,
2013-01-05 15:24:00,23.4,17.6,29.88,North,360,2.3,2.3,78,0.00,-RA,,0.00,33.0,WeatherDisplay:10.37,2013-01-05 21:24:00,
2013-01-05 15:29:00,23.0,17.5,29.88,North,360,0.0,0.0,79,0.00,-RA,,0.00,33.0,WeatherDisplay:10.37,2013-01-05 21:29:00,
2013-01-05 15:34:00,22.8,17.3,29.89,North,360,0.0,0.4,79,0.00,-RA,,0.00,32.0,WeatherDisplay:10.37,2013-01-05 21:34:00,
2013-01-05 15:39:00,22.8,17.6,29.89,North,355,0.0,0.0,80,0.00,-RA,,0.00,39.0,WeatherDisplay:10.37,2013-01-05 21:39:00,
2013-01-05 15:44:00,22.5,17.3,29.89,North,355,0.0,0.0,80,0.00,-RA,,0.00,97.0,WeatherDisplay:10.37,2013-01-05 21:44:00,
2013-01-05 15:49:00,22.9,17.7,29.90,North,355,2.3,2.3,80,0.00,-RA,,0.00,67.0,WeatherDisplay:10.37,2013-01-05 21:49:00,
2013-01-05 15:54:00,23.0,17.7,29.90,North,355,0.0,0.0,80,0.00,-RA,,0.00,65.0,WeatherDisplay:10.37,2013-01-05 21:54:00,
2013-01-05 15:59:00,23.1,17.8,29.91,North,350,1.1,1.1,80,0.00,-RA,,0.00,60.0,WeatherDisplay:10.37,2013-01-05 21:59:00,
2013-01-05 16:04:00,23.2,17.9,29.91,North,349,0.0,0.0,80,0.00,-RA,,0.00,53.0,WeatherDisplay:10.37,2013-01-05 22:04:00,
2013-01-05 16:09:00,23.3,18.0,29.91,North,349,0.0,0.0,80,0.00,-RA,,0.00,32.0,WeatherDisplay:10.37,2013-01-05 22:09:00,
2013-01-05 16:14:00,23.3,18.0,29.91,NNE,13,0.0,0.0,80,0.00,-RA,,0.00,21.0,WeatherDisplay:10.37,2013-01-05 22:14:00,
2013-01-05 16:20:00,23.4,18.1,29.91,North,11,2.3,2.3,80,0.00,-RA,,0.00,19.0,WeatherDisplay:10.37,2013-01-05 22:20:00,
2013-01-05 16:25:00,23.3,18.0,29.91,North,11,0.0,0.0,80,0.00,-RA,,0.00,18.0,WeatherDisplay:10.37,2013-01-05 22:25:00,
2013-01-05 16:30:00,23.3,18.0,29.91,North,355,2.3,2.3,80,0.00,-RA,,0.00,12.0,WeatherDisplay:10.37,2013-01-05 22:30:00,
2013-01-05 16:35:00,23.2,17.9,29.92,North,355,3.5,3.5,80,0.00,-RA,,0.00,9.0,WeatherDisplay:10.37,2013-01-05 22:35:00,
2013-01-05 16:40:00,23.1,17.8,29.92,North,350,3.5,3.5,80,0.00,-RA,,0.00,5.0,WeatherDisplay:10.37,2013-01-05 22:40:00,
2013-01-05 16:45:00,23.0,17.7,29.92,NNW,334,1.1,1.1,80,0.00,-RA,,0.00,5.0,WeatherDisplay:10.37,2013-01-05 22:45:00,
2013-01-05 16:50:00,22.8,17.6,29.92,NNW,334,0.0,0.0,80,0.00,-RA,,0.00,0.0,WeatherDisplay:10.37,2013-01-05 22:50:00,
2013-01-05 16:55:00,22.7,17.5,29.92,NNW,334,0.0,0.0,80,0.00,-RA,,0.00,0.0,WeatherDisplay:10.37,2013-01-05 22:55:00,
2013-01-05 17:00:00,22.5,17.3,29.93,NNW,333,2.0,2.0,80,0.00,-RA,,0.00,0.0,WeatherDisplay:10.37,2013-01-05 23:00:00,
2013-01-05 17:05:00,22.4,17.2,29.94,NNW,333,0.0,0.0,80,0.00,-RA,,0.00,0.0,WeatherDisplay:10.37,2013-01-05 23:05:00,
2013-01-05 17:10:00,22.3,17.1,29.93,NNW,333,0.0,0.0,80,0.00,-RA,,0.00,0.0,WeatherDisplay:10.37,2013-01-05 23:10:00,
2013-01-05 17:15:00,22.2,17.0,29.93,NNW,333,0.0,0.0,80,0.00,-RA,,0.00,0.0,WeatherDisplay:10.37,2013-01-05 23:15:00,
2013-01-05 17:20:00,22.0,16.8,29.93,NNW,333,0.0,0.0,80,0.00,-RA,,0.00,0.0,WeatherDisplay:10.37,2013-01-05 23:20:00,
2013-01-05 17:25:00,21.7,16.5,29.93,NNW,333,0.0,0.0,80,0.00,-RA,,0.00,0.0,WeatherDisplay:10.37,2013-01-05 23:25:00,
2013-01-05 17:30:00,21.5,16.3,29.93,NNW,333,0.0,0.0,80,0.00,-RA,,0.00,0.0,WeatherDisplay:10.37,2013-01-05 23:30:00,
2013-01-05 17:35:00,21.3,16.1,29.93,NNW,333,0.0,0.0,80,0.00,-RA,,0.00,0.0,WeatherDisplay:10.37,2013-01-05 23:35:00,
2013-01-05 17:40:00,21.1,15.6,29.93,NNW,333,0.0,0.0,79,0.00,-RA,,0.00,0.0,WeatherDisplay:10.37,2013-01-05 23:40:00,
2013-01-05 17:45:00,20.7,15.2,29.93,NNW,333,0.0,0.0,79,0.00,-RA,,0.00,0.0,WeatherDisplay:10.37,2013-01-05 23:45:00,
2013-01-05 17:50:00,20.3,14.5,29.94,NNW,333,0.0,0.0,78,0.00,-RA,,0.00,0.0,WeatherDisplay:10.37,2013-01-05 23:50:00,
2013-01-05 17:55:00,19.8,14.0,29.94,NNW,333,0.0,0.0,78,0.00,-RA,,0.00,0.0,WeatherDisplay:10.37,2013-01-05 23:55:00,
2013-01-05 18:00:00,19.6,13.9,29.95,NNW,333,0.0,1.0,78,0.00,-RA,,0.00,0.0,WeatherDisplay:10.37,2013-01-06 00:00:00,
2013-01-05 18:05:00,19.0,13.3,29.94,NNW,333,0.0,0.0,78,0.00,-RA,,0.00,0.0,WeatherDisplay:10.37,2013-01-06 00:05:00,
2013-01-05 18:10:00,18.7,13.3,29.94,NNW,333,0.0,0.0,79,0.00,-RA,,0.00,0.0,WeatherDisplay:10.37,2013-01-06 00:10:00,
2013-01-05 18:15:00,18.4,13.0,29.94,NNW,333,0.0,0.0,79,0.00,-RA,,0.00,0.0,WeatherDisplay:10.37,2013-01-06 00:15:00,
2013-01-05 18:20:00,18.1,13.0,29.94,NNW,333,0.0,1.0,80,0.00,-RA,,0.00,0.0,WeatherDisplay:10.37,2013-01-06 00:20:00,
2013-01-05 18:25:00,17.7,12.6,29.95,NNW,333,0.0,0.0,80,0.00,-RA,,0.00,0.0,WeatherDisplay:10.37,2013-01-06 00:25:00,
2013-01-05 18:30:00,17.4,12.3,29.94,NNW,333,0.0,0.0,80,0.00,-RA,,0.00,0.0,WeatherDisplay:10.37,2013-01-06 00:30:00,
2013-01-05 18:35:00,17.1,12.3,29.94,NNW,333,0.0,0.0,81,0.00,-RA,,0.00,0.0,WeatherDisplay:10.37,2013-01-06 00:35:00,
2013-01-05 18:40:00,16.8,12.0,29.94,NNW,333,0.0,0.0,81,0.00,-RA,,0.00,0.0,WeatherDisplay:10.37,2013-01-06 00:40:00,
2013-01-05 18:45:00,16.6,12.1,29.94,NNW,333,0.0,0.0,82,0.00,-RA,,0.00,0.0,WeatherDisplay:10.37,2013-01-06 00:45:00,
2013-01-05 18:50:00,16.3,11.8,29.94,NNW,333,0.0,0.0,82,0.00,-RA,,0.00,0.0,WeatherDisplay:10.37,2013-01-06 00:50:00,
2013-01-05 18:55:00,16.2,11.7,29.95,NNW,333,0.0,0.0,82,0.00,-RA,,0.00,0.0,WeatherDisplay:10.37,2013-01-06 00:55:00,
2013-01-05 19:00:00,16.0,11.5,29.96,NNW,333,0.0,0.0,82,0.00,-RA,,0.00,0.0,WeatherDisplay:10.37,2013-01-06 01:00:00,
2013-01-05 19:05:00,15.8,11.6,29.96,NNW,333,0.0,0.0,83,0.00,-RA,,0.00,0.0,WeatherDisplay:10.37,2013-01-06 01:05:00,
2013-01-05 19:10:00,15.7,11.7,29.96,NNW,333,1.1,1.1,84,0.00,-RA,,0.00,0.0,WeatherDisplay:10.37,2013-01-06 01:10:00,
2013-01-05 19:15:00,15.7,12.0,29.97,NNW,333,3.5,3.5,85,0.00,-RA,,0.00,0.0,WeatherDisplay:10.37,2013-01-06 01:15:00,
2013-01-05 19:20:00,15.8,12.1,29.97,NNW,331,3.0,3.0,85,0.00,-RA,,0.00,0.0,WeatherDisplay:10.37,2013-01-06 01:20:00,
2013-01-05 19:25:00,15.9,12.2,29.97,NNW,330,0.0,0.4,85,0.00,-RA,,0.00,0.0,WeatherDisplay:10.37,2013-01-06 01:25:00,
2013-01-05 19:30:00,15.9,12.5,29.97,NNW,330,0.0,0.0,86,0.00,-RA,,0.00,0.0,WeatherDisplay:10.37,2013-01-06 01:30:00,
2013-01-05 19:36:00,15.9,12.5,29.98,NNW,330,1.0,1.0,86,0.00,-RA,,0.00,0.0,WeatherDisplay:10.37,2013-01-06 01:36:00,
2013-01-05 19:41:00,15.8,12.1,29.98,NW,321,2.3,2.3,85,0.00,-RA,,0.00,0.0,WeatherDisplay:10.37,2013-01-06 01:41:00,
2013-01-05 19:46:00,15.6,11.9,29.98,NW,319,3.5,3.5,85,0.00,-RA,,0.00,0.0,WeatherDisplay:10.37,2013-01-06 01:46:00,
2013-01-05 19:51:00,15.4,11.4,29.98,NW,319,3.5,3.5,84,0.00,-RA,,0.00,0.0,WeatherDisplay:10.37,2013-01-06 01:51:00,
2013-01-05 19:56:00,15.2,11.2,29.98,WNW,291,3.5,3.5,84,0.00,-RA,,0.00,0.0,WeatherDisplay:10.37,2013-01-06 01:56:00,
2013-01-05 20:01:00,14.9,10.7,29.98,WNW,292,2.0,2.0,83,0.00,-RA,,0.00,0.0,WeatherDisplay:10.37,2013-01-06 02:01:00,
2013-01-05 20:06:00,14.7,10.5,29.98,WNW,293,0.0,0.0,83,0.00,-RA,,0.00,0.0,WeatherDisplay:10.37,2013-01-06 02:06:00,
2013-01-05 20:11:00,14.4,9.9,29.98,WNW,293,0.0,0.0,82,0.00,-RA,,0.00,0.0,WeatherDisplay:10.37,2013-01-06 02:11:00,
2013-01-05 20:16:00,14.1,9.6,29.99,WNW,291,3.5,3.5,82,0.00,-RA,,0.00,0.0,WeatherDisplay:10.37,2013-01-06 02:16:00,
2013-01-05 20:21:00,13.7,9.0,29.99,WNW,292,2.3,2.3,81,0.00,-RA,,0.00,0.0,WeatherDisplay:10.37,2013-01-06 02:21:00,
2013-01-05 20:26:00,13.4,8.7,29.99,WNW,292,1.1,1.1,81,0.00,-RA,,0.00,0.0,WeatherDisplay:10.37,2013-01-06 02:26:00,
2013-01-05 20:31:00,13.1,8.4,29.99,WNW,292,2.0,2.0,81,0.00,-RA,,0.00,0.0,WeatherDisplay:10.37,2013-01-06 02:31:00,
2013-01-05 20:36:00,12.7,7.7,29.99,WNW,294,2.3,2.3,80,0.00,-RA,,0.00,0.0,WeatherDisplay:10.37,2013-01-06 02:36:00,
2013-01-05 20:41:00,12.4,7.4,29.99,WNW,294,1.1,1.1,80,0.00,-RA,,0.00,0.0,WeatherDisplay:10.37,2013-01-06 02:41:00,
2013-01-05 20:46:00,12.1,7.1,29.99,WNW,294,0.0,0.0,80,0.00,-RA,,0.00,0.0,WeatherDisplay:10.37,2013-01-06 02:46:00,
2013-01-05 20:51:00,11.8,6.8,29.99,WNW,294,0.0,0.0,80,0.00,-RA,,0.00,0.0,WeatherDisplay:10.37,2013-01-06 02:51:00,
2013-01-05 20:56:00,11.6,6.6,29.99,WNW,294,0.0,0.0,80,0.00,-RA,,0.00,0.0,WeatherDisplay:10.37,2013-01-06 02:56:00,
2013-01-05 21:01:00,11.3,6.3,29.99,WNW,294,0.0,0.0,80,0.00,-RA,,0.00,0.0,WeatherDisplay:10.37,2013-01-06 03:01:00,
2013-01-05 21:06:00,10.9,5.9,29.99,WNW,294,0.0,0.0,80,0.00,-RA,,0.00,0.0,WeatherDisplay:10.37,2013-01-06 03:06:00,
2013-01-05 21:11:00,10.7,5.7,29.98,WNW,294,0.0,0.0,80,0.00,-RA,,0.00,0.0,WeatherDisplay:10.37,2013-01-06 03:11:00,
2013-01-05 21:16:00,10.3,5.4,29.98,WNW,294,0.0,0.0,80,0.00,-RA,,0.00,0.0,WeatherDisplay:10.37,2013-01-06 03:16:00,
2013-01-05 21:21:00,10.0,5.1,29.98,WNW,294,0.0,0.0,80,0.00,-RA,,0.00,0.0,WeatherDisplay:10.37,2013-01-06 03:21:00,
2013-01-05 21:26:00,9.9,5.0,29.99,WNW,294,0.0,0.0,80,0.00,-RA,,0.00,0.0,WeatherDisplay:10.37,2013-01-06 03:26:00,
2013-01-05 21:31:00,9.6,4.7,29.99,WNW,294,0.0,0.0,80,0.00,-RA,,0.00,0.0,WeatherDisplay:10.37,2013-01-06 03:31:00,
2013-01-05 21:36:00,9.4,4.5,29.99,WNW,294,2.3,2.3,80,0.00,-RA,,0.00,0.0,WeatherDisplay:10.37,2013-01-06 03:36:00,
2013-01-05 21:41:00,9.1,4.2,29.99,WNW,294,2.3,2.3,80,0.00,-RA,,0.00,0.0,WeatherDisplay:10.37,2013-01-06 03:41:00,
2013-01-05 21:46:00,8.9,4.3,29.99,WNW,294,0.0,0.0,81,0.00,-RA,,0.00,0.0,WeatherDisplay:10.37,2013-01-06 03:46:00,
2013-01-05 21:51:00,8.6,4.0,30.00,WNW,294,0.0,0.0,81,0.00,-RA,,0.00,0.0,WeatherDisplay:10.37,2013-01-06 03:51:00,
2013-01-05 21:56:00,8.4,3.8,30.00,WNW,294,0.0,0.0,81,0.00,-RA,,0.00,0.0,WeatherDisplay:10.37,2013-01-06 03:56:00,
2013-01-05 22:01:00,8.1,3.5,30.00,WNW,294,1.0,1.0,81,0.00,-RA,,0.00,0.0,WeatherDisplay:10.37,2013-01-06 04:01:00,
2013-01-05 22:06:00,7.9,3.3,30.00,WNW,294,0.0,0.0,81,0.00,-RA,,0.00,0.0,WeatherDisplay:10.37,2013-01-06 04:06:00,
2013-01-05 22:11:00,7.6,3.0,30.00,WNW,294,0.0,0.0,81,0.00,-RA,,0.00,0.0,WeatherDisplay:10.37,2013-01-06 04:11:00,
2013-01-05 22:16:00,7.4,2.8,30.00,WNW,294,0.0,0.0,81,0.00,-RA,,0.00,0.0,WeatherDisplay:10.37,2013-01-06 04:16:00,
2013-01-05 22:21:00,7.2,2.6,30.00,WNW,294,0.0,0.0,81,0.00,-RA,,0.00,0.0,WeatherDisplay:10.37,2013-01-06 04:21:00,
2013-01-05 22:26:00,7.1,2.5,30.00,WNW,294,0.0,0.0,81,0.00,-RA,,0.00,0.0,WeatherDisplay:10.37,2013-01-06 04:26:00,
2013-01-05 22:31:00,6.9,2.3,30.00,WNW,294,0.0,0.0,81,0.00,-RA,,0.00,0.0,WeatherDisplay:10.37,2013-01-06 04:31:00,
2013-01-05 22:36:00,6.8,2.2,30.00,WNW,294,0.0,0.0,81,0.00,-RA,,0.00,0.0,WeatherDisplay:10.37,2013-01-06 04:36:00,
2013-01-05 22:41:00,6.7,2.1,30.00,WNW,294,0.0,0.0,81,0.00,-RA,,0.00,0.0,WeatherDisplay:10.37,2013-01-06 04:41:00,
2013-01-05 22:46:00,6.7,2.4,30.00,WNW,294,2.3,0.0,82,0.00,-RA,,0.00,0.0,WeatherDisplay:10.37,2013-01-06 04:46:00,
2013-01-05 22:51:00,6.7,2.4,30.00,WNW,294,0.0,0.0,82,0.00,-RA,,0.00,0.0,WeatherDisplay:10.37,2013-01-06 04:51:00,
2013-01-05 22:56:00,6.6,2.3,30.01,WNW,294,0.0,0.4,82,0.00,-RA,,0.00,0.0,WeatherDisplay:10.37,2013-01-06 04:56:00,
2013-01-05 23:00:00,6.6,2.3,30.01,WNW,294,1.0,4.0,82,0.00,-RA,,0.00,0.0,WeatherDisplay:10.37,2013-01-06 05:00:00,
2013-01-05 23:01:00,6.6,2.3,30.01,WNW,294,2.3,2.3,82,0.00,-RA,,0.00,0.0,WeatherDisplay:10.37,2013-01-06 05:01:00,
2013-01-05 23:03:00,6.6,2.3,30.01,WNW,294,0.0,0.3,82,0.00,-RA,,0.00,0.0,WeatherDisplay:10.37,2013-01-06 05:03:00,
2013-01-05 23:06:00,6.5,2.2,30.01,WNW,294,1.1,0.0,82,0.00,-RA,,0.00,0.0,WeatherDisplay:10.37,2013-01-06 05:06:00,
2013-01-05 23:11:00,6.5,2.2,30.01,WNW,294,0.0,0.0,82,0.00,-RA,,0.00,0.0,WeatherDisplay:10.37,2013-01-06 05:11:00,
2013-01-05 23:16:00,6.5,2.2,30.00,WNW,294,1.1,1.1,82,0.00,-RA,,0.00,0.0,WeatherDisplay:10.37,2013-01-06 05:16:00,
2013-01-05 23:21:00,6.4,2.1,30.00,WNW,294,0.0,0.0,82,0.00,-RA,,0.00,0.0,WeatherDisplay:10.37,2013-01-06 05:21:00,
2013-01-05 23:26:00,6.4,2.1,30.00,WNW,294,0.0,0.0,82,0.00,-RA,,0.00,0.0,WeatherDisplay:10.37,2013-01-06 05:26:00,
2013-01-05 23:31:00,6.4,2.1,30.00,WNW,294,0.0,0.0,82,0.00,-RA,,0.00,0.0,WeatherDisplay:10.37,2013-01-06 05:31:00,
2013-01-05 23:36:00,6.4,2.1,30.01,WNW,294,0.0,0.0,82,0.00,-RA,,0.00,0.0,WeatherDisplay:10.37,2013-01-06 05:36:00,
2013-01-05 23:41:00,6.4,2.1,30.01,WNW,294,0.0,0.0,82,0.00,-RA,,0.00,0.0,WeatherDisplay:10.37,2013-01-06 05:41:00,
2013-01-05 23:46:00,6.4,2.1,30.01,WNW,294,2.3,2.3,82,0.00,-RA,,0.00,0.0,WeatherDisplay:10.37,2013-01-06 05:46:00,
2013-01-05 23:51:00,6.4,2.1,30.00,WNW,294,0.0,0.0,82,0.00,-RA,,0.00,0.0,WeatherDisplay:10.37,2013-01-06 05:51:00,
2013-01-05 23:56:00,6.5,2.2,30.00,WNW,294,1.1,0.0,82,0.00,-RA,,0.00,0.0,WeatherDisplay:10.37,2013-01-06 05:56:00,